| time (UTC) | temp C | wind direction | speed KPH | gust KPH | rain 1hr cm | rain 24hr cm | rain mn cm | humidity % | barometer mb |
| 20260509191336 | 36 | 20 | 3.2 | 6.4 | 0.00 | 0.00 | 0.00 | 12 | 1008.1 |
| 20260509190326 | 36 | 239 | 3.2 | 8.0 | 0.00 | 0.00 | 0.00 | 13 | 1008.2 |
| 20260509185335 | 36 | 67 | 1.6 | 4.8 | 0.00 | 0.00 | 0.00 | 12 | 1008.2 |
| 20260509184343 | 36 | 250 | 0.0 | 4.8 | 0.00 | 0.00 | 0.00 | 12 | 1008.4 |
| 20260509183329 | 36 | 5 | 1.6 | 8.0 | 0.00 | 0.00 | 0.00 | 13 | 1008.5 |
| 20260509182337 | 36 | 346 | 4.8 | 8.0 | 0.00 | 0.00 | 0.00 | 13 | 1008.7 |
| 20260509181349 | 35 | 340 | 3.2 | 6.4 | 0.00 | 0.00 | 0.00 | 13 | 1008.8 |
| 20260509180335 | 35 | 155 | 3.2 | 6.4 | 0.00 | 0.00 | 0.00 | 14 | 1009.0 |
| 20260509175343 | 35 | 175 | 3.2 | 9.7 | 0.00 | 0.00 | 0.00 | 14 | 1009.1 |
| 20260509174329 | 35 | 101 | 0.0 | 4.8 | 0.00 | 0.00 | 0.00 | 14 | 1009.1 |
| 20260509173400 | 34 | 298 | 0.0 | 4.8 | 0.00 | 0.00 | 0.00 | 14 | 1009.2 |
| 20260509172347 | 33 | 230 | 0.0 | 12.9 | 0.00 | 0.00 | 0.00 | 15 | 1009.2 |
| 20260509171333 | 33 | 173 | 3.2 | 8.0 | 0.00 | 0.00 | 0.00 | 15 | 1009.2 |
| 20260509170339 | 33 | 9 | 1.6 | 8.0 | 0.00 | 0.00 | 0.00 | 16 | 1009.2 |
| 20260509165330 | 32 | 140 | 1.6 | 8.0 | 0.00 | 0.00 | 0.00 | 18 | 1009.3 |
| 20260509164339 | 32 | 59 | 1.6 | 9.7 | 0.00 | 0.00 | 0.00 | 17 | 1009.3 |
| 20260509163326 | 32 | 24 | 3.2 | 8.0 | 0.00 | 0.00 | 0.00 | 17 | 1009.3 |
| 20260509162335 | 32 | 62 | 4.8 | 9.7 | 0.00 | 0.00 | 0.00 | 17 | 1009.3 |
| 20260509161327 | 31 | 101 | 3.2 | 8.0 | 0.00 | 0.00 | 0.00 | 18 | 1009.3 |
| 20260509160335 | 31 | 82 | 3.2 | 11.3 | 0.00 | 0.00 | 0.00 | 19 | 1009.4 |
| 20260509155341 | 30 | 98 | 3.2 | 9.7 | 0.00 | 0.00 | 0.00 | 19 | 1009.4 |
| 20260509154329 | 30 | 46 | 4.8 | 11.3 | 0.00 | 0.00 | 0.00 | 20 | 1009.3 |
| 20260509153340 | 30 | 97 | 3.2 | 9.7 | 0.00 | 0.00 | 0.00 | 20 | 1009.2 |
| 20260509152348 | 29 | 107 | 3.2 | 9.7 | 0.00 | 0.00 | 0.00 | 20 | 1009.2 |
| 20260509151334 | 28 | 88 | 1.6 | 9.7 | 0.00 | 0.00 | 0.00 | 21 | 1009.1 |
| 20260509150342 | 28 | 144 | 4.8 | 12.9 | 0.00 | 0.00 | 0.00 | 21 | 1009.2 |
| 20260509145354 | 28 | 108 | 0.0 | 0.0 | 0.00 | 0.00 | 0.00 | 23 | 1009.1 |
| 20260509143334 | 26 | 94 | 0.0 | 0.0 | 0.00 | 0.00 | 0.00 | 25 | 1009.1 |
| 20260509142326 | 26 | 60 | 0.0 | 0.0 | 0.00 | 0.00 | 0.00 | 26 | 1009.0 |
| 20260509141333 | 25 | 63 | 0.0 | 0.0 | 0.00 | 0.00 | 0.00 | 26 | 1009.0 |
| 20260509140400 | 25 | 82 | 0.0 | 0.0 | 0.00 | 0.00 | 0.00 | 28 | 1009.0 |
| 20260509135405 | 24 | 84 | 1.6 | 9.7 | 0.00 | 0.00 | 0.00 | 28 | 1008.9 |
| 20260509134331 | 23 | 78 | 0.0 | 4.8 | 0.00 | 0.00 | 0.00 | 29 | 1008.7 |
| 20260509133402 | 23 | 76 | 0.0 | 1.6 | 0.00 | 0.00 | 0.00 | 29 | 1008.6 |
| 20260509132406 | 23 | 60 | 0.0 | 1.6 | 0.00 | 0.00 | 0.00 | 30 | 1008.4 |
| 20260509131331 | 22 | 98 | 0.0 | 1.6 | 0.00 | 0.00 | 0.00 | 30 | 1008.4 |
| 20260509130357 | 22 | 70 | 0.0 | 0.0 | 0.00 | 0.00 | 0.00 | 29 | 1008.2 |
| 20260509125343 | 22 | 65 | 0.0 | 0.0 | 0.00 | 0.00 | 0.00 | 28 | 1008.1 |
| 20260509124332 | 23 | 55 | 0.0 | 0.0 | 0.00 | 0.00 | 0.00 | 29 | 1007.9 |
| 20260509123339 | 23 | 55 | 0.0 | 0.0 | 0.00 | 0.00 | 0.00 | 29 | 1007.8 |
| 20260509122326 | 23 | 5 | 0.0 | 0.0 | 0.00 | 0.00 | 0.00 | 28 | 1007.7 |
| 20260509121334 | 23 | 355 | 0.0 | 0.0 | 0.00 | 0.00 | 0.00 | 27 | 1007.5 |
| 20260509120343 | 23 | 286 | 0.0 | 0.0 | 0.00 | 0.00 | 0.00 | 26 | 1007.4 |
| 20260509115331 | 24 | 320 | 0.0 | 0.0 | 0.00 | 0.00 | 0.00 | 25 | 1007.3 |
| 20260509114338 | 24 | 320 | 0.0 | 0.0 | 0.00 | 0.00 | 0.00 | 25 | 1007.3 |
| 20260509113326 | 24 | 320 | 0.0 | 0.0 | 0.00 | 0.00 | 0.00 | 24 | 1007.3 |
| 20260509112337 | 24 | 320 | 0.0 | 0.0 | 0.00 | 0.00 | 0.00 | 24 | 1007.3 |
| 20260509111345 | 25 | 290 | 0.0 | 0.0 | 0.00 | 0.00 | 0.00 | 24 | 1007.1 |
| 20260509110332 | 25 | 281 | 0.0 | 0.0 | 0.00 | 0.00 | 0.00 | 23 | 1007.1 |
| 20260509105339 | 25 | 266 | 0.0 | 0.0 | 0.00 | 0.00 | 0.00 | 23 | 1007.0 |
| 20260509104328 | 25 | 295 | 0.0 | 0.0 | 0.00 | 0.00 | 0.00 | 22 | 1007.0 |
| 20260509103335 | 25 | 286 | 0.0 | 0.0 | 0.00 | 0.00 | 0.00 | 23 | 1006.9 |
| 20260509102342 | 24 | 270 | 0.0 | 0.0 | 0.00 | 0.00 | 0.00 | 23 | 1006.9 |
| 20260509101349 | 24 | 261 | 0.0 | 0.0 | 0.00 | 0.00 | 0.00 | 23 | 1007.0 |
| 20260509100339 | 25 | 257 | 0.0 | 0.0 | 0.00 | 0.00 | 0.00 | 23 | 1007.0 |
| 20260509095347 | 25 | 294 | 0.0 | 0.0 | 0.00 | 0.00 | 0.00 | 22 | 1006.9 |
| 20260509094334 | 25 | 338 | 0.0 | 0.0 | 0.00 | 0.00 | 0.00 | 22 | 1007.1 |
| 20260509093340 | 25 | 338 | 0.0 | 0.0 | 0.00 | 0.00 | 0.00 | 23 | 1007.1 |
| 20260509092347 | 25 | 338 | 0.0 | 0.0 | 0.00 | 0.00 | 0.00 | 23 | 1007.1 |
| 20260509091339 | 25 | 338 | 0.0 | 0.0 | 0.00 | 0.00 | 0.00 | 23 | 1007.1 |
| 20260509090404 | 26 | 338 | 0.0 | 0.0 | 0.00 | 0.00 | 0.00 | 21 | 1007.1 |
| 20260509085331 | 26 | 338 | 0.0 | 0.0 | 0.00 | 0.00 | 0.00 | 22 | 1007.1 |
| 20260509084339 | 26 | 338 | 0.0 | 0.0 | 0.00 | 0.00 | 0.00 | 22 | 1007.1 |
| 20260509083330 | 27 | 338 | 0.0 | 0.0 | 0.00 | 0.00 | 0.00 | 21 | 1007.0 |
| 20260509082357 | 27 | 338 | 0.0 | 0.0 | 0.00 | 0.00 | 0.00 | 21 | 1006.9 |
| 20260509081343 | 28 | 338 | 0.0 | 0.0 | 0.00 | 0.00 | 0.00 | 20 | 1006.8 |
| 20260509080330 | 28 | 338 | 0.0 | 0.0 | 0.00 | 0.00 | 0.00 | 19 | 1006.8 |
| 20260509075340 | 28 | 338 | 0.0 | 0.0 | 0.00 | 0.00 | 0.00 | 19 | 1006.9 |
| 20260509074327 | 29 | 340 | 0.0 | 0.0 | 0.00 | 0.00 | 0.00 | 18 | 1006.9 |
| 20260509073335 | 30 | 355 | 0.0 | 3.2 | 0.00 | 0.00 | 0.00 | 17 | 1006.8 |
| 20260509072343 | 30 | 284 | 0.0 | 1.6 | 0.00 | 0.00 | 0.00 | 16 | 1006.8 |
| 20260509071335 | 30 | 273 | 0.0 | 3.2 | 0.00 | 0.00 | 0.00 | 16 | 1006.7 |
| 20260509070342 | 30 | 259 | 0.0 | 8.0 | 0.00 | 0.00 | 0.00 | 16 | 1006.7 |
| 20260509065330 | 31 | 248 | 3.2 | 11.3 | 0.00 | 0.00 | 0.00 | 15 | 1006.7 |
| 20260509064337 | 31 | 252 | 1.6 | 12.9 | 0.00 | 0.00 | 0.00 | 15 | 1006.6 |
| 20260509063348 | 31 | 252 | 6.4 | 14.5 | 0.00 | 0.00 | 0.00 | 15 | 1006.6 |
| 20260509062334 | 31 | 207 | 1.6 | 11.3 | 0.00 | 0.00 | 0.00 | 15 | 1006.6 |
| 20260509061400 | 31 | 286 | 3.2 | 12.9 | 0.00 | 0.00 | 0.00 | 15 | 1006.5 |
| 20260509060345 | 31 | 207 | 1.6 | 14.5 | 0.00 | 0.00 | 0.00 | 15 | 1006.6 |
| 20260509055356 | 31 | 238 | 1.6 | 20.9 | 0.00 | 0.00 | 0.00 | 15 | 1006.5 |
| 20260509054341 | 31 | 237 | 4.8 | 16.1 | 0.00 | 0.00 | 0.00 | 15 | 1006.5 |
| 20260509053328 | 32 | 196 | 0.0 | 11.3 | 0.00 | 0.00 | 0.00 | 16 | 1006.5 |
| 20260509052336 | 32 | 215 | 0.0 | 11.3 | 0.00 | 0.00 | 0.00 | 15 | 1006.6 |
| 20260509051326 | 32 | 290 | 3.2 | 12.9 | 0.00 | 0.00 | 0.00 | 15 | 1006.6 |
| 20260509050334 | 32 | 238 | 0.0 | 9.7 | 0.00 | 0.00 | 0.00 | 15 | 1006.5 |
| 20260509045341 | 32 | 265 | 0.0 | 12.9 | 0.00 | 0.00 | 0.00 | 15 | 1006.5 |
| 20260509044328 | 32 | 208 | 4.8 | 14.5 | 0.00 | 0.00 | 0.00 | 15 | 1006.3 |
| 20260509043359 | 32 | 265 | 4.8 | 14.5 | 0.00 | 0.00 | 0.00 | 15 | 1006.2 |
| 20260509042343 | 33 | 261 | 3.2 | 11.3 | 0.00 | 0.00 | 0.00 | 15 | 1006.1 |
| 20260509041330 | 33 | 248 | 1.6 | 8.0 | 0.00 | 0.00 | 0.00 | 15 | 1006.1 |
| 20260509040337 | 33 | 221 | 4.8 | 12.9 | 0.00 | 0.00 | 0.00 | 15 | 1006.0 |
| 20260509035405 | 33 | 216 | 3.2 | 9.7 | 0.00 | 0.00 | 0.00 | 15 | 1005.8 |
| 20260509034335 | 34 | 255 | 3.2 | 14.5 | 0.00 | 0.00 | 0.00 | 15 | 1005.7 |
| 20260509033402 | 34 | 298 | 8.0 | 17.7 | 0.00 | 0.00 | 0.00 | 14 | 1005.6 |
| 20260509032329 | 34 | 224 | 3.2 | 11.3 | 0.00 | 0.00 | 0.00 | 14 | 1005.5 |
| 20260509031336 | 35 | 271 | 0.0 | 17.7 | 0.00 | 0.00 | 0.00 | 14 | 1005.4 |
| 20260509030328 | 35 | 271 | 6.4 | 16.1 | 0.00 | 0.00 | 0.00 | 14 | 1005.3 |
| 20260509025335 | 35 | 257 | 1.6 | 12.9 | 0.00 | 0.00 | 0.00 | 13 | 1005.1 |
| 20260509024343 | 35 | 249 | 6.4 | 17.7 | 0.00 | 0.00 | 0.00 | 13 | 1004.9 |
| 20260509023330 | 35 | 249 | 1.6 | 11.3 | 0.00 | 0.00 | 0.00 | 13 | 1004.8 |
| 20260509022401 | 36 | 267 | 6.4 | 14.5 | 0.00 | 0.00 | 0.00 | 12 | 1004.7 |
| 20260509021346 | 36 | 247 | 4.8 | 17.7 | 0.00 | 0.00 | 0.00 | 12 | 1004.6 |
| 20260509020334 | 36 | 281 | 8.0 | 17.7 | 0.00 | 0.00 | 0.00 | 12 | 1004.6 |
| 20260509015340 | 36 | 294 | 3.2 | 16.1 | 0.00 | 0.00 | 0.00 | 12 | 1004.5 |
| 20260509014332 | 37 | 267 | 3.2 | 16.1 | 0.00 | 0.00 | 0.00 | 11 | 1004.5 |
| 20260509013339 | 37 | 175 | 4.8 | 16.1 | 0.00 | 0.00 | 0.00 | 11 | 1004.5 |
| 20260509012406 | 37 | 237 | 9.7 | 17.7 | 0.00 | 0.00 | 0.00 | 11 | 1004.5 |
| 20260509011333 | 37 | 197 | 1.6 | 19.3 | 0.00 | 0.00 | 0.00 | 11 | 1004.6 |
| 20260509010405 | 37 | 265 | 8.0 | 20.9 | 0.00 | 0.00 | 0.00 | 11 | 1004.6 |
| 20260509005331 | 37 | 192 | 0.0 | 16.1 | 0.00 | 0.00 | 0.00 | 11 | 1004.7 |
| 20260509004339 | 37 | 255 | 11.3 | 20.9 | 0.00 | 0.00 | 0.00 | 11 | 1004.8 |
| 20260509003327 | 37 | 278 | 8.0 | 16.1 | 0.00 | 0.00 | 0.00 | 11 | 1004.8 |
| 20260509002338 | 37 | 298 | 8.0 | 19.3 | 0.00 | 0.00 | 0.00 | 11 | 1004.9 |
| 20260509001405 | 38 | 252 | 9.7 | 17.7 | 0.00 | 0.00 | 0.00 | 11 | 1005.0 |
| 20260509000352 | 37 | 228 | 4.8 | 20.9 | 0.00 | 0.00 | 0.00 | 11 | 1005.0 |
| 20260508235338 | 37 | 261 | 4.8 | 20.9 | 0.00 | 0.00 | 0.00 | 12 | 1005.0 |
| 20260508234329 | 37 | 281 | 4.8 | 19.3 | 0.00 | 0.00 | 0.00 | 12 | 1005.1 |
| 20260508233336 | 37 | 240 | 11.3 | 24.1 | 0.00 | 0.00 | 0.00 | 12 | 1005.4 |
| 20260508232343 | 37 | 205 | 9.7 | 22.5 | 0.00 | 0.00 | 0.00 | 12 | 1005.4 |
| 20260508231330 | 37 | 250 | 8.0 | 19.3 | 0.00 | 0.00 | 0.00 | 13 | 1005.5 |
| 20260508230356 | 37 | 269 | 6.4 | 17.7 | 0.00 | 0.00 | 0.00 | 13 | 1005.6 |
| 20260508225407 | 37 | 269 | 12.9 | 20.9 | 0.00 | 0.00 | 0.00 | 13 | 1005.6 |
| 20260508224352 | 37 | 259 | 12.9 | 17.7 | 0.00 | 0.00 | 0.00 | 13 | 1005.9 |
| 20260508223338 | 37 | 289 | 6.4 | 19.3 | 0.00 | 0.00 | 0.00 | 13 | 1006.1 |
| 20260508222345 | 37 | 257 | 8.0 | 17.7 | 0.00 | 0.00 | 0.00 | 14 | 1006.3 |
| 20260508221336 | 36 | 332 | 8.0 | 22.5 | 0.00 | 0.00 | 0.00 | 13 | 1006.5 |
| 20260508220343 | 36 | 276 | 8.0 | 19.3 | 0.00 | 0.00 | 0.00 | 13 | 1006.7 |
| 20260508215329 | 37 | 284 | 12.9 | 27.4 | 0.00 | 0.00 | 0.00 | 13 | 1006.9 |
| 20260508214337 | 37 | 261 | 6.4 | 20.9 | 0.00 | 0.00 | 0.00 | 13 | 1007.1 |
| 20260508213327 | 37 | 256 | 8.0 | 19.3 | 0.00 | 0.00 | 0.00 | 13 | 1007.2 |
| 20260508212335 | 36 | 263 | 6.4 | 16.1 | 0.00 | 0.00 | 0.00 | 14 | 1007.4 |
| 20260508211401 | 36 | 306 | 3.2 | 19.3 | 0.00 | 0.00 | 0.00 | 14 | 1007.6 |
| 20260508210327 | 36 | 273 | 4.8 | 17.7 | 0.00 | 0.00 | 0.00 | 14 | 1007.8 |
| 20260508205340 | 36 | 305 | 4.8 | 19.3 | 0.00 | 0.00 | 0.00 | 15 | 1007.9 |
| 20260508204346 | 35 | 226 | 8.0 | 16.1 | 0.00 | 0.00 | 0.00 | 15 | 1008.2 |
| 20260508203332 | 35 | 250 | 3.2 | 14.5 | 0.00 | 0.00 | 0.00 | 15 | 1008.3 |
| 20260508202339 | 35 | 280 | 6.4 | 19.3 | 0.00 | 0.00 | 0.00 | 14 | 1008.4 |
| 20260508201331 | 35 | 240 | 9.7 | 17.7 | 0.00 | 0.00 | 0.00 | 14 | 1008.6 |
| 20260508200336 | 35 | 228 | 4.8 | 19.3 | 0.00 | 0.00 | 0.00 | 15 | 1008.7 |
| 20260508195343 | 34 | 274 | 4.8 | 12.9 | 0.00 | 0.00 | 0.00 | 14 | 1008.8 |
| 20260508194330 | 34 | 217 | 4.8 | 11.3 | 0.00 | 0.00 | 0.00 | 14 | 1008.8 |
| 20260508193342 | 34 | 200 | 1.6 | 8.0 | 0.00 | 0.00 | 0.00 | 16 | 1009.0 |
| 20260508192329 | 34 | 288 | 1.6 | 11.3 | 0.00 | 0.00 | 0.00 | 15 | 1009.2 |